Flag for U.S.A. Weather past 2 weeks in Columbia, South Carolina, U.S.A.

Now
80 °F

Passing clouds.


Feels Like: 82 °F
Forecast: 67 / 93 °F
Wind: No wind

Location: Columbia Owens Downtown Airport

Current Time: Aug 29, 2014 at 10:55:42 AM

Latest Report: Aug 29, 2014 at 9:53 AM


Visibility: 10 mi

Pressure: 30.10 "Hg

Humidity: 64%

Dew point: 67 °F

Location of ColumbiaLocation

Historic Weather in Columbia — Graph

°F

Columbia temperature yesterday

Maximum temperature yesterday: 96 °F (at 4:53 PM)
Minimum temperature yesterday: 63 °F (at 6:53 AM)
Average temperature yesterday: 80 °F

Past Weeks' High & Low Weather Summary

 TemperatureHumidityPressure
High99 °F (Aug 22, 5:53 PM)91% (Aug 16, 4:53 AM)30.13 "Hg (Aug 16, 4:53 AM)
Low63 °F (Aug 28, 6:53 AM)22% (Aug 28, 4:53 PM)29.82 "Hg (Aug 18, 4:53 PM)
Average81 °F61%29.99 "Hg
* Reported Aug 14 8:53 AM — Aug 29 8:53 AM, Columbia, Weather by CustomWeather, © 2014

Note: Actual official high and low records may vary slightly from our data, if they occured in-between our weather recording intervals... More about our weather records

Advertising

Columbia weather history for previous 24 hours

 ConditionsComfort  
Time TempWeatherWind HumidityBarometerVisibility
8:53 AM
Aug 29
76 °FSunny.No wind72%30.09 "Hg10 mi
7:53 AM71 °FClear.No wind81%30.09 "Hg10 mi
6:53 AM68 °FClear.No wind84%30.07 "Hg10 mi
5:53 AM69 °FClear.No wind81%30.05 "Hg10 mi
4:53 AM70 °FClear.No wind79%30.04 "Hg10 mi
3:53 AM71 °FClear.No wind73%30.03 "Hg10 mi
2:53 AM72 °FClear.No wind71%30.03 "Hg10 mi
1:53 AM72 °FClear.No wind71%30.04 "Hg10 mi
12:53 AM73 °FClear.No wind69%30.03 "Hg10 mi
11:53 PM
Aug 28
76 °FClear.No wind60%30.03 "Hg10 mi
10:53 PM78 °FClear.No wind54%30.02 "Hg10 mi
9:53 PM81 °FClear.No wind51%30.00 "Hg10 mi
8:53 PM84 °FSunny.No wind46%29.98 "Hg10 mi
7:53 PM88 °FSunny.No wind40%29.97 "Hg10 mi
6:53 PM93 °FSunny.5 mph28%29.96 "Hg10 mi
5:53 PM95 °FSunny.No wind24%29.96 "Hg10 mi
4:53 PM96 °FSunny.5 mph22%29.95 "Hg10 mi
3:53 PM94 °FSunny.No wind25%29.96 "Hg10 mi
2:53 PM93 °FSunny.5 mph26%29.98 "Hg10 mi
1:53 PM92 °FSunny.8 mph32%30.00 "Hg10 mi
12:53 PM90 °FSunny.No wind34%30.02 "Hg10 mi
11:53 AM88 °FSunny.8 mph36%30.04 "Hg10 mi
10:53 AM87 °FSunny.5 mph40%30.05 "Hg10 mi
Weather by CustomWeather, © 2014

See weather overviewHow to use our weather pages